User: anonymous   Login
Location: Holmes Observatory
(37.1039°N, 122.0513°W)
Time: 08:40:43
(UTC-07:00)
Language:

Cosmos 921 Rocket - Orbit

View from above orbital plane
View from above orbital plane
View from above satellite
View from above satellite

Ground track
Ground track

The orbit data is extracted from the following two-line orbital elements,

1 10096U 77055B   15116.09646934  .00000757  00000-0  82787-4 0  9990
2 10096 075.8335 310.2428 0042576 040.9062 319.5309 14.88228527 45741
Epoch (UTC): 26 April 2015 02:18:54
Eccentricity: 0.0042576
inclination: 75.8335°
perigee height: 574 km
apogee height: 633 km
right ascension of ascending node: 310.2428°
argument of perigee: 40.9062°
revolutions per day: 14.88228527
mean anomaly at epoch: 319.5309°
orbit number at epoch: 4574

The dashed part of the orbit path shows where the satellite is in the earth's shadow,  

DLR